Time,TemperatureF,DewpointF,PressureIn,WindDirection,WindDirectionDegrees,WindSpeedMPH,WindSpeedGustMPH,Humidity,HourlyPrecipIn,Conditions,Clouds,dailyrainin,SoftwareType,DateUTC
2013-04-15 00:02:00,25.0,20.0,-100.00,NNW,330,18.0,22.0,80,-99.99,,,-99.99,,2013-04-15 06:02:00,
2013-04-15 00:12:00,25.0,20.0,-100.00,NNW,330,18.0,22.0,80,-99.99,,,-99.99,,2013-04-15 06:12:00,
2013-04-15 00:22:00,25.0,20.0,-100.00,NNW,335,19.0,23.0,80,-99.99,,,-99.99,,2013-04-15 06:22:00,
2013-04-15 00:31:00,25.0,20.0,-100.00,NW,325,16.0,19.0,80,-99.99,,,-99.99,,2013-04-15 06:31:00,
2013-04-15 00:33:00,25.0,20.0,-100.00,NNW,330,15.0,20.0,80,-99.99,,,-99.99,,2013-04-15 06:33:00,
2013-04-15 00:41:00,25.0,20.0,-100.00,NW,325,14.0,21.0,80,-99.99,,,-99.99,,2013-04-15 06:41:00,
2013-04-15 00:42:00,25.0,20.0,-100.00,NNW,330,15.0,20.0,80,-99.99,,,-99.99,,2013-04-15 06:42:00,
2013-04-15 00:52:00,25.0,20.0,-100.00,NW,325,14.0,20.0,80,-99.99,,,-99.99,,2013-04-15 06:52:00,
2013-04-15 01:02:00,25.0,20.0,-100.00,NW,325,16.0,19.0,80,-99.99,,,-99.99,,2013-04-15 07:02:00,
2013-04-15 01:43:00,25.0,20.0,-100.00,NNW,330,16.0,19.0,80,-99.99,,,-99.99,,2013-04-15 07:43:00,
2013-04-15 01:54:00,25.0,20.0,-100.00,NNW,330,16.0,19.0,80,-99.99,,,-99.99,,2013-04-15 07:54:00,
2013-04-15 02:02:00,25.0,20.0,-100.00,NNW,330,16.0,19.0,79,-99.99,,,-99.99,,2013-04-15 08:02:00,
2013-04-15 02:13:00,25.0,20.0,-100.00,NNW,330,16.0,19.0,79,-99.99,,,-99.99,,2013-04-15 08:13:00,
2013-04-15 02:22:00,25.0,20.0,-100.00,NW,325,16.0,19.0,79,-99.99,,,-99.99,,2013-04-15 08:22:00,
2013-04-15 02:33:00,25.0,19.0,-100.00,NW,320,14.0,19.0,79,-99.99,,,-99.99,,2013-04-15 08:33:00,
2013-04-15 02:42:00,25.0,19.0,-100.00,NW,320,14.0,19.0,79,-99.99,,,-99.99,,2013-04-15 08:42:00,
2013-04-15 02:52:00,25.0,19.0,-100.00,NW,325,16.0,22.0,79,-99.99,,,-99.99,,2013-04-15 08:52:00,
2013-04-15 03:03:00,25.0,19.0,-100.00,NW,325,16.0,18.0,79,-99.99,,,-99.99,,2013-04-15 09:03:00,
2013-04-15 03:12:00,25.0,19.0,-100.00,NW,325,16.0,18.0,79,-99.99,,,-99.99,,2013-04-15 09:12:00,
2013-04-15 03:23:00,25.0,19.0,-100.00,NW,325,17.0,21.0,79,-99.99,,,-99.99,,2013-04-15 09:23:00,
2013-04-15 03:32:00,25.0,19.0,-100.00,NW,320,18.0,21.0,79,-99.99,,,-99.99,,2013-04-15 09:32:00,
2013-04-15 03:43:00,25.0,19.0,-100.00,NW,320,18.0,21.0,79,-99.99,,,-99.99,,2013-04-15 09:43:00,
2013-04-15 03:53:00,24.0,19.0,-100.00,NW,325,15.0,21.0,79,-99.99,,,-99.99,,2013-04-15 09:53:00,
2013-04-15 04:02:00,24.0,19.0,-100.00,NW,325,17.0,21.0,79,-99.99,,,-99.99,,2013-04-15 10:02:00,
2013-04-15 04:13:00,24.0,19.0,-100.00,NW,325,17.0,21.0,79,-99.99,,,-99.99,,2013-04-15 10:13:00,
2013-04-15 04:23:00,25.0,19.0,-100.00,NW,320,17.0,21.0,79,-99.99,,,-99.99,,2013-04-15 10:23:00,
2013-04-15 04:33:00,25.0,19.0,-100.00,NNW,330,14.0,20.0,78,-99.99,,,-99.99,,2013-04-15 10:33:00,
2013-04-15 04:42:00,25.0,19.0,-100.00,NNW,330,14.0,20.0,78,-99.99,,,-99.99,,2013-04-15 10:42:00,
2013-04-15 04:53:00,25.0,19.0,-100.00,NW,325,17.0,21.0,78,-99.99,,,-99.99,,2013-04-15 10:53:00,
2013-04-15 05:12:00,25.0,19.0,-100.00,NW,325,16.0,22.0,77,-99.99,,,-99.99,,2013-04-15 11:12:00,
2013-04-15 05:22:00,25.0,18.0,-100.00,NNW,330,19.0,25.0,77,-99.99,,,-99.99,,2013-04-15 11:22:00,
2013-04-15 05:32:00,24.0,18.0,-100.00,NNW,330,17.0,22.0,76,-99.99,,,-99.99,,2013-04-15 11:32:00,
2013-04-15 05:43:00,24.0,18.0,-100.00,NNW,330,17.0,22.0,76,-99.99,,,-99.99,,2013-04-15 11:43:00,
2013-04-15 05:54:00,24.0,18.0,-100.00,NW,315,17.0,22.0,76,-99.99,,,-99.99,,2013-04-15 11:54:00,
2013-04-15 06:04:00,24.0,17.0,-100.00,NW,320,16.0,21.0,76,-99.99,,,-99.99,,2013-04-15 12:04:00,
2013-04-15 06:14:00,24.0,17.0,-100.00,NW,320,16.0,21.0,76,-99.99,,,-99.99,,2013-04-15 12:14:00,
2013-04-15 06:23:00,24.0,17.0,-100.00,NW,315,16.0,19.0,76,-99.99,,,-99.99,,2013-04-15 12:23:00,
2013-04-15 06:33:00,23.0,17.0,-100.00,NW,305,14.0,19.0,77,-99.99,,,-99.99,,2013-04-15 12:33:00,
2013-04-15 06:43:00,23.0,17.0,-100.00,NW,305,14.0,19.0,77,-99.99,,,-99.99,,2013-04-15 12:43:00,
2013-04-15 06:53:00,22.0,17.0,-100.00,NW,305,16.0,19.0,77,-99.99,,,-99.99,,2013-04-15 12:53:00,
2013-04-15 07:04:00,22.0,17.0,-100.00,NW,310,14.0,18.0,77,-99.99,,,-99.99,,2013-04-15 13:04:00,
2013-04-15 07:12:00,22.0,17.0,-100.00,NW,310,14.0,18.0,77,-99.99,,,-99.99,,2013-04-15 13:12:00,
2013-04-15 07:23:00,23.0,17.0,-100.00,NW,310,17.0,21.0,77,-99.99,,,-99.99,,2013-04-15 13:23:00,
2013-04-15 07:33:00,23.0,17.0,-100.00,NW,310,13.0,20.0,77,-99.99,,,-99.99,,2013-04-15 13:33:00,
2013-04-15 07:43:00,23.0,17.0,-100.00,NW,310,13.0,20.0,77,-99.99,,,-99.99,,2013-04-15 13:43:00,
2013-04-15 07:54:00,23.0,17.0,-100.00,NW,305,16.0,19.0,77,-99.99,,,-99.99,,2013-04-15 13:54:00,
2013-04-15 08:05:00,23.0,17.0,-100.00,NW,305,16.0,20.0,77,-99.99,,,-99.99,,2013-04-15 14:05:00,
2013-04-15 08:13:00,23.0,17.0,-100.00,NW,305,16.0,20.0,77,-99.99,,,-99.99,,2013-04-15 14:13:00,
2013-04-15 08:22:00,23.0,17.0,-100.00,NW,310,17.0,21.0,77,-99.99,,,-99.99,,2013-04-15 14:22:00,
2013-04-15 08:33:00,23.0,17.0,-100.00,NW,305,16.0,21.0,77,-99.99,,,-99.99,,2013-04-15 14:33:00,
2013-04-15 08:44:00,23.0,17.0,-100.00,NW,305,16.0,21.0,77,-99.99,,,-99.99,,2013-04-15 14:44:00,
2013-04-15 08:55:00,23.0,17.0,-100.00,NW,305,16.0,18.0,77,-99.99,,,-99.99,,2013-04-15 14:55:00,
2013-04-15 09:03:00,24.0,17.0,-100.00,WNW,300,15.0,18.0,74,-99.99,,,-99.99,,2013-04-15 15:03:00,
2013-04-15 09:13:00,24.0,17.0,-100.00,WNW,300,15.0,18.0,74,-99.99,,,-99.99,,2013-04-15 15:13:00,
2013-04-15 09:24:00,24.0,17.0,-100.00,NW,310,16.0,21.0,74,-99.99,,,-99.99,,2013-04-15 15:24:00,
2013-04-15 09:35:00,25.0,17.0,-100.00,NW,305,16.0,20.0,72,-99.99,,,-99.99,,2013-04-15 15:35:00,
2013-04-15 09:44:00,25.0,17.0,-100.00,NW,305,16.0,20.0,72,-99.99,,,-99.99,,2013-04-15 15:44:00,
2013-04-15 09:55:00,25.0,17.0,-100.00,NW,305,16.0,21.0,72,-99.99,,,-99.99,,2013-04-15 15:55:00,
2013-04-15 10:04:00,26.0,18.0,-100.00,NW,305,16.0,20.0,71,-99.99,,,-99.99,,2013-04-15 16:04:00,
2013-04-15 10:13:00,26.0,18.0,-100.00,NW,305,16.0,20.0,71,-99.99,,,-99.99,,2013-04-15 16:13:00,
2013-04-15 10:24:00,26.0,18.0,-100.00,NW,305,16.0,22.0,70,-99.99,,,-99.99,,2013-04-15 16:24:00,
2013-04-15 10:33:00,26.0,18.0,-100.00,WNW,290,16.0,21.0,69,-99.99,,,-99.99,,2013-04-15 16:33:00,
2013-04-15 10:44:00,26.0,18.0,-100.00,WNW,290,16.0,21.0,69,-99.99,,,-99.99,,2013-04-15 16:44:00,
2013-04-15 10:54:00,27.0,18.0,-100.00,WNW,295,17.0,21.0,69,-99.99,,,-99.99,,2013-04-15 16:54:00,
2013-04-15 11:03:00,27.0,18.0,-100.00,WNW,285,18.0,23.0,67,-99.99,,,-99.99,,2013-04-15 17:03:00,
2013-04-15 11:15:00,27.0,18.0,-100.00,WNW,285,18.0,23.0,67,-99.99,,,-99.99,,2013-04-15 17:15:00,
2013-04-15 11:22:00,27.0,18.0,-100.00,WNW,295,20.0,23.0,67,-99.99,,,-99.99,,2013-04-15 17:22:00,
2013-04-15 11:33:00,27.0,17.0,-100.00,WNW,295,20.0,23.0,66,-99.99,,,-99.99,,2013-04-15 17:33:00,
2013-04-15 11:43:00,27.0,17.0,-100.00,WNW,295,20.0,23.0,66,-99.99,,,-99.99,,2013-04-15 17:43:00,
2013-04-15 11:53:00,27.0,17.0,-100.00,WNW,290,19.0,22.0,66,-99.99,,,-99.99,,2013-04-15 17:53:00,
2013-04-15 12:03:00,28.0,18.0,-100.00,WNW,300,19.0,25.0,66,-99.99,,,-99.99,,2013-04-15 18:03:00,
2013-04-15 12:12:00,28.0,18.0,-100.00,WNW,300,19.0,25.0,66,-99.99,,,-99.99,,2013-04-15 18:12:00,
2013-04-15 12:23:00,28.0,19.0,-100.00,WNW,295,17.0,22.0,67,-99.99,,,-99.99,,2013-04-15 18:23:00,
2013-04-15 12:32:00,29.0,19.0,-100.00,WNW,295,18.0,22.0,66,-99.99,,,-99.99,,2013-04-15 18:32:00,
2013-04-15 12:42:00,29.0,19.0,-100.00,WNW,295,18.0,22.0,66,-99.99,,,-99.99,,2013-04-15 18:42:00,
2013-04-15 12:52:00,29.0,19.0,-100.00,WNW,290,18.0,21.0,66,-99.99,,,-99.99,,2013-04-15 18:52:00,
2013-04-15 13:02:00,29.0,19.0,-100.00,NW,310,17.0,22.0,66,-99.99,,,-99.99,,2013-04-15 19:02:00,
2013-04-15 13:12:00,29.0,19.0,-100.00,NW,310,17.0,22.0,66,-99.99,,,-99.99,,2013-04-15 19:12:00,
2013-04-15 13:22:00,29.0,19.0,-100.00,WNW,300,17.0,23.0,66,-99.99,,,-99.99,,2013-04-15 19:22:00,
2013-04-15 13:37:00,29.0,19.0,-100.00,WNW,295,18.0,22.0,65,-99.99,,,-99.99,,2013-04-15 19:37:00,
2013-04-15 13:53:00,29.0,19.0,-100.00,WNW,295,18.0,22.0,65,-99.99,,,-99.99,,2013-04-15 19:53:00,
2013-04-15 14:02:00,29.0,19.0,-100.00,WNW,300,20.0,22.0,65,-99.99,,,-99.99,,2013-04-15 20:02:00,
2013-04-15 14:11:00,29.0,19.0,-100.00,WNW,300,20.0,22.0,65,-99.99,,,-99.99,,2013-04-15 20:11:00,
2013-04-15 14:22:00,29.0,18.0,-100.00,NW,310,19.0,23.0,65,-99.99,,,-99.99,,2013-04-15 20:22:00,
2013-04-15 14:32:00,29.0,18.0,-100.00,NW,305,19.0,23.0,64,-99.99,,,-99.99,,2013-04-15 20:32:00,
2013-04-15 14:42:00,29.0,18.0,-100.00,NW,305,19.0,23.0,64,-99.99,,,-99.99,,2013-04-15 20:42:00,
2013-04-15 14:52:00,30.0,19.0,-100.00,WNW,295,18.0,23.0,63,-99.99,,,-99.99,,2013-04-15 20:52:00,
2013-04-15 15:02:00,29.0,19.0,-100.00,NW,305,17.0,24.0,64,-99.99,,,-99.99,,2013-04-15 21:02:00,
2013-04-15 15:12:00,29.0,19.0,-100.00,NW,305,17.0,24.0,64,-99.99,,,-99.99,,2013-04-15 21:12:00,
2013-04-15 15:22:00,29.0,19.0,-100.00,WNW,295,17.0,22.0,64,-99.99,,,-99.99,,2013-04-15 21:22:00,
2013-04-15 15:32:00,29.0,19.0,-100.00,WNW,300,19.0,24.0,63,-99.99,,,-99.99,,2013-04-15 21:32:00,
2013-04-15 15:43:00,29.0,19.0,-100.00,WNW,300,19.0,24.0,63,-99.99,,,-99.99,,2013-04-15 21:43:00,
2013-04-15 15:53:00,29.0,18.0,-100.00,NW,305,17.0,22.0,63,-99.99,,,-99.99,,2013-04-15 21:53:00,
2013-04-15 16:02:00,29.0,19.0,-100.00,WNW,300,17.0,22.0,64,-99.99,,,-99.99,,2013-04-15 22:02:00,
2013-04-15 16:13:00,29.0,19.0,-100.00,WNW,300,17.0,22.0,64,-99.99,,,-99.99,,2013-04-15 22:13:00,
2013-04-15 16:23:00,29.0,18.0,-100.00,NW,305,16.0,21.0,62,-99.99,,,-99.99,,2013-04-15 22:23:00,
2013-04-15 16:33:00,29.0,19.0,-100.00,WNW,300,17.0,22.0,63,-99.99,,,-99.99,,2013-04-15 22:33:00,
2013-04-15 16:52:00,29.0,19.0,-100.00,NW,310,17.0,21.0,65,-99.99,,,-99.99,,2013-04-15 22:52:00,
2013-04-15 17:02:00,29.0,18.0,-100.00,NW,305,18.0,22.0,64,-99.99,,,-99.99,,2013-04-15 23:02:00,
2013-04-15 17:12:00,29.0,18.0,-100.00,NW,305,18.0,22.0,64,-99.99,,,-99.99,,2013-04-15 23:12:00,
2013-04-15 17:22:00,28.0,18.0,-100.00,NW,305,17.0,21.0,64,-99.99,,,-99.99,,2013-04-15 23:22:00,
2013-04-15 17:32:00,29.0,18.0,-100.00,WNW,295,16.0,19.0,65,-99.99,,,-99.99,,2013-04-15 23:32:00,
2013-04-15 17:42:00,29.0,18.0,-100.00,WNW,295,16.0,19.0,65,-99.99,,,-99.99,,2013-04-15 23:42:00,
2013-04-15 17:52:00,29.0,18.0,-100.00,WNW,295,16.0,19.0,65,-99.99,,,-99.99,,2013-04-15 23:52:00,
2013-04-15 18:02:00,28.0,18.0,-100.00,WNW,295,15.0,19.0,64,-99.99,,,-99.99,,2013-04-16 00:02:00,
2013-04-15 18:12:00,28.0,18.0,-100.00,WNW,295,15.0,19.0,64,-99.99,,,-99.99,,2013-04-16 00:12:00,
2013-04-15 18:22:00,28.0,18.0,-100.00,WNW,290,16.0,18.0,63,-99.99,,,-99.99,,2013-04-16 00:22:00,
2013-04-15 18:32:00,28.0,18.0,-100.00,WNW,290,16.0,20.0,64,-99.99,,,-99.99,,2013-04-16 00:32:00,
2013-04-15 18:42:00,28.0,18.0,-100.00,WNW,290,16.0,20.0,64,-99.99,,,-99.99,,2013-04-16 00:42:00,
2013-04-15 18:52:00,28.0,17.0,-100.00,WNW,295,15.0,17.0,64,-99.99,,,-99.99,,2013-04-16 00:52:00,
2013-04-15 19:02:00,28.0,18.0,-100.00,WNW,295,13.0,17.0,66,-99.99,,,-99.99,,2013-04-16 01:02:00,
2013-04-15 19:12:00,28.0,18.0,-100.00,WNW,295,13.0,17.0,66,-99.99,,,-99.99,,2013-04-16 01:12:00,
2013-04-15 19:22:00,28.0,18.0,-100.00,WNW,295,12.0,17.0,67,-99.99,,,-99.99,,2013-04-16 01:22:00,
2013-04-15 19:32:00,28.0,18.0,-100.00,WNW,295,15.0,17.0,68,-99.99,,,-99.99,,2013-04-16 01:32:00,
2013-04-15 19:42:00,28.0,18.0,-100.00,WNW,295,15.0,17.0,68,-99.99,,,-99.99,,2013-04-16 01:42:00,
2013-04-15 19:52:00,28.0,18.0,-100.00,WNW,300,12.0,15.0,67,-99.99,,,-99.99,,2013-04-16 01:52:00,
2013-04-15 20:02:00,27.0,19.0,-100.00,WNW,295,11.0,15.0,69,-99.99,,,-99.99,,2013-04-16 02:02:00,
2013-04-15 20:12:00,27.0,19.0,-100.00,WNW,295,11.0,15.0,69,-99.99,,,-99.99,,2013-04-16 02:12:00,
2013-04-15 20:22:00,27.0,19.0,-100.00,NW,305,13.0,15.0,69,-99.99,,,-99.99,,2013-04-16 02:22:00,
2013-04-15 20:32:00,27.0,19.0,-100.00,WNW,300,10.0,14.0,71,-99.99,,,-99.99,,2013-04-16 02:32:00,
2013-04-15 20:42:00,27.0,19.0,-100.00,WNW,300,10.0,14.0,71,-99.99,,,-99.99,,2013-04-16 02:42:00,
2013-04-15 20:52:00,27.0,19.0,-100.00,WNW,300,9.0,12.0,72,-99.99,,,-99.99,,2013-04-16 02:52:00,
2013-04-15 21:02:00,27.0,20.0,-100.00,WNW,290,9.0,12.0,73,-99.99,,,-99.99,,2013-04-16 03:02:00,
2013-04-15 21:12:00,27.0,20.0,-100.00,WNW,290,9.0,12.0,73,-99.99,,,-99.99,,2013-04-16 03:12:00,
2013-04-15 21:22:00,27.0,19.0,-100.00,WNW,300,9.0,10.0,73,-99.99,,,-99.99,,2013-04-16 03:22:00,
2013-04-15 21:33:00,27.0,18.0,-100.00,WNW,295,9.0,11.0,71,-99.99,,,-99.99,,2013-04-16 03:33:00,
2013-04-15 21:43:00,27.0,18.0,-100.00,WNW,295,9.0,11.0,71,-99.99,,,-99.99,,2013-04-16 03:43:00,
2013-04-15 21:53:00,27.0,18.0,-100.00,NW,305,9.0,11.0,70,-99.99,,,-99.99,,2013-04-16 03:53:00,
2013-04-15 22:03:00,27.0,18.0,-100.00,West,280,7.0,9.0,70,-99.99,,,-99.99,,2013-04-16 04:03:00,
2013-04-15 22:12:00,27.0,18.0,-100.00,West,280,7.0,9.0,70,-99.99,,,-99.99,,2013-04-16 04:12:00,
2013-04-15 22:23:00,27.0,18.0,-100.00,West,280,8.0,9.0,70,-99.99,,,-99.99,,2013-04-16 04:23:00,
2013-04-15 22:33:00,27.0,18.0,-100.00,West,280,7.0,10.0,70,-99.99,,,-99.99,,2013-04-16 04:33:00,
2013-04-15 22:42:00,27.0,18.0,-100.00,West,280,7.0,10.0,70,-99.99,,,-99.99,,2013-04-16 04:42:00,
2013-04-15 22:53:00,27.0,18.0,-100.00,West,275,6.0,11.0,70,-99.99,,,-99.99,,2013-04-16 04:53:00,
2013-04-15 23:02:00,27.0,18.0,-100.00,West,280,8.0,10.0,71,-99.99,,,-99.99,,2013-04-16 05:02:00,
2013-04-15 23:12:00,27.0,18.0,-100.00,West,280,8.0,10.0,71,-99.99,,,-99.99,,2013-04-16 05:12:00,
2013-04-15 23:22:00,26.0,18.0,-100.00,West,270,7.0,10.0,71,-99.99,,,-99.99,,2013-04-16 05:22:00,
2013-04-15 23:32:00,26.0,19.0,-100.00,West,280,9.0,11.0,72,-99.99,,,-99.99,,2013-04-16 05:32:00,
2013-04-15 23:42:00,26.0,19.0,-100.00,West,280,9.0,11.0,72,-99.99,,,-99.99,,2013-04-16 05:42:00,
2013-04-15 23:52:00,26.0,19.0,-100.00,West,280,8.0,10.0,72,-99.99,,,-99.99,,2013-04-16 05:52:00,